Wind_Speed
25 25 24 24 23 22 22 21 21 20 19 19 18 18 17 17 17 17 16 16 16 15 15 15 15 15 15 15 16 16 17 18 18 18 18 18 18 19 20 21 21 22 22 22 23 23 24 24 24 24 24 24 24 23 23 23 23 22 21 20 20 21 22 24 23 22 22 22 21 21 20 20 22 23 23 22 22 23 24 25 24 24 25 26 26 25 23 22
25 25 24 24 24 23 23 22 22 21 21 20 20 20 19 19 19 19 19 19 18 18 18 18 18 18 18 18 18 19 20 21 21 21 21 21 21 22 23 23 23 24 24 24 24 25 25 25 25 25 25 24 24 24 23 23 23 22 21 20 20 23 23 24 26 26 25 24 23 22 22 22 22 24 24 23 23 24 25 26 25 24 26 28 27 25 23 23
26 26 25 25 25 24 24 24 23 23 23 22 22 22 21 22 21 21 21 21 21 21 21 21 21 21 21 21 21 21 22 23 25 25 24 24 24 24 25 25 25 25 25 25 25 26 26 26 25 25 24 23 23 23 23 24 24 22 22 21 21 24 24 26 28 28 27 25 23 23 23 23 23 25 25 24 25 25 25 27 25 24 27 29 29 27 24 23
27 27 27 27 27 27 26 26 26 26 25 25 25 25 24 24 24 24 24 24 24 24 24 24 24 24 23 23 24 24 24 26 27 27 26 26 26 26 26 26 26 25 25 26 26 25 25 25 25 25 24 23 23 24 25 25 26 24 24 24 23 26 26 27 29 28 28 26 25 24 24 24 24 25 26 27 27 25 25 27 25 24 26 28 29 29 27 25
30 30 30 30 30 30 29 29 29 28 28 28 28 28 28 27 27 27 27 27 27 27 27 27 27 26 26 26 26 26 26 27 29 28 27 27 27 27 27 27 26 25 25 25 25 25 24 24 24 25 25 25 25 26 26 27 28 26 24 25 26 27 27 26 28 29 28 27 26 26 25 25 25 25 28 28 26 24 25 28 26 24 25 27 28 28 28 28
33 33 33 33 33 33 32 32 31 31 31 31 31 30 30 30 30 30 30 30 30 30 30 30 30 29 29 28 28 27 27 29 31 29 28 28 28 27 27 26 26 25 25 25 25 25 24 25 26 27 27 27 28 28 29 29 30 28 25 25 28 29 27 26 28 29 29 28 27 28 27 26 26 27 26 25 24 23 25 28 27 25 25 24 25 26 27 27
35 35 35 35 36 35 35 35 34 34 34 34 33 33 33 33 33 33 33 33 33 33 32 32 32 32 32 30 29 28 26 30 33 29 28 28 27 26 26 25 25 25 25 25 25 26 26 27 28 30 30 30 30 30 31 31 31 30 26 26 29 29 27 27 29 29 29 30 30 31 30 27 29 29 23 21 22 23 25 27 26 24 24 23 23 26 27 26
34 35 35 36 36 37 37 37 37 36 36 36 36 35 35 35 36 35 36 36 35 35 35 35 34 33 33 30 29 26 24 31 33 29 27 26 25 26 25 25 25 25 26 27 27 28 29 30 31 32 32 31 31 31 32 33 32 30 29 29 30 30 29 29 29 29 30 31 33 34 33 30 32 29 19 18 22 25 26 26 26 25 25 25 27 29 30 29
33 33 33 34 35 35 36 37 37 37 37 37 37 37 37 37 37 37 37 37 37 36 36 35 34 33 31 29 27 21 24 31 30 27 27 26 26 26 26 26 27 27 28 29 30 31 32 32 32 33 33 32 32 32 32 34 33 32 32 32 31 31 31 30 29 30 32 33 35 37 36 32 34 30 19 17 26 30 28 26 26 26 25 27 30 30 31 30
33 32 32 32 33 33 34 34 35 35 36 36 36 36 36 36 36 36 36 36 35 34 34 33 32 31 28 27 23 18 25 31 27 28 28 28 28 28 28 29 29 30 30 30 31 32 33 33 33 33 34 33 32 32 33 34 34 34 34 34 32 32 31 30 30 31 35 36 37 40 39 35 35 32 21 19 29 32 30 28 27 27 25 26 29 29 30 29
35 35 34 33 33 32 32 32 32 32 33 33 33 33 32 32 32 33 33 33 32 32 31 31 30 29 27 25 20 19 27 29 27 30 30 31 31 30 31 31 31 31 31 32 32 33 33 33 33 34 35 34 33 34 34 34 35 35 36 35 33 34 32 30 30 32 36 38 38 42 41 36 35 33 27 26 31 31 30 28 27 27 25 26 27 27 27 27
38 38 37 36 35 34 33 33 32 32 32 31 31 31 31 31 31 31 32 32 31 31 31 31 30 29 28 24 21 23 27 28 29 32 33 34 34 33 33 33 33 33 33 33 33 34 34 34 35 36 36 36 35 35 35 34 36 36 37 37 35 35 32 30 32 34 37 38 38 43 44 38 34 33 31 32 33 32 31 28 27 27 27 27 27 27 26 25
40 40 39 38 37 37 36 35 34 34 33 33 33 32 32 32 32 32 33 33 33 33 33 33 32 32 31 26 24 28 29 29 32 34 35 36 35 34 34 34 34 35 35 35 35 35 36 36 37 38 37 37 37 36 37 36 37 38 38 39 37 37 33 30 35 37 36 38 39 44 48 40 34 33 32 35 37 34 32 29 27 27 28 29 29 29 28 27
41 41 40 40 39 39 38 38 37 37 37 36 36 35 35 35 35 35 35 36 36 36 36 37 36 37 36 30 28 31 31 32 34 36 37 36 36 36 35 36 36 36 37 37 37 37 38 38 39 39 39 39 39 38 39 38 39 38 39 40 39 40 35 30 35 36 34 37 39 44 50 45 36 32 33 35 38 37 34 31 28 26 27 29 29 29 29 29
42 41 41 41 40 40 40 40 40 40 40 39 39 39 38 38 38 38 39 39 40 40 40 40 40 41 39 34 32 33 33 35 36 37 37 37 37 37 37 38 38 38 39 39 39 39 40 40 41 41 41 41 40 40 40 41 40 39 41 42 41 42 40 34 33 33 34 37 40 44 49 48 38 33 33 36 37 37 36 32 28 26 26 27 28 29 30 29
42 42 41 41 42 41 41 41 42 42 42 42 42 41 41 41 41 41 42 41 42 42 42 42 42 43 42 37 34 35 35 37 38 39 39 39 39 39 39 40 40 40 41 41 41 41 41 42 43 43 43 42 41 41 42 44 43 40 43 46 43 43 44 40 33 30 34 39 42 44 48 48 42 35 35 36 37 37 35 32 29 26 25 26 27 29 30 30
44 43 43 43 43 43 43 43 43 43 43 43 43 43 43 43 43 43 43 44 44 44 44 44 44 45 44 40 37 37 38 39 40 40 40 40 40 40 40 41 41 42 42 42 43 43 43 44 45 46 45 43 41 41 45 47 45 44 45 46 45 44 45 44 37 31 34 41 45 45 45 46 44 39 36 36 36 35 33 30 28 26 26 27 28 29 29 30
46 45 45 45 45 45 45 45 45 45 45 45 45 45 45 46 46 46 46 46 46 46 46 46 46 46 46 43 40 39 40 41 41 41 41 40 41 41 41 42 42 43 44 44 44 44 46 47 47 48 46 43 42 44 48 49 47 47 46 46 46 45 44 44 40 35 37 42 44 45 43 43 44 42 38 35 35 35 32 29 27 27 28 28 29 29 28 30
47 47 47 48 48 48 47 47 47 47 47 47 47 47 47 47 47 48 48 48 48 48 48 47 47 47 47 44 43 43 43 42 42 42 41 41 41 42 42 43 44 45 46 46 46 47 48 49 50 50 46 44 45 48 50 49 48 49 48 48 48 47 46 43 41 40 41 43 44 43 41 42 43 42 39 37 36 36 33 27 26 27 28 28 27 27 28 31
48 48 48 49 49 49 49 49 49 48 49 49 49 48 48 48 49 49 49 49 49 49 49 49 48 48 47 46 46 47 46 45 44 43 42 42 42 43 44 44 45 46 46 47 49 49 50 52 52 49 45 46 49 51 51 50 50 50 50 50 49 49 48 44 42 42 43 45 46 42 41 43 42 40 41 40 39 38 32 26 25 25 27 27 26 26 29 33
49 48 49 49 50 50 50 50 50 50 50 50 50 50 50 50 50 50 50 49 49 50 50 49 50 50 48 48 48 49 49 48 46 44 43 43 43 44 44 45 46 46 46 48 50 50 51 54 52 48 47 50 51 51 51 51 51 51 52 52 51 51 49 46 45 45 46 47 47 45 43 44 42 39 41 42 41 38 33 28 25 25 26 25 25 26 29 32
49 49 50 50 51 51 51 51 51 51 51 51 51 51 51 51 51 51 51 50 49 49 51 50 50 51 50 50 50 50 51 50 48 46 45 45 44 45 45 46 47 47 48 49 50 50 53 55 52 49 50 52 51 51 51 52 52 52 52 53 53 52 50 50 49 47 49 50 49 48 46 46 45 42 42 44 43 38 34 31 28 26 25 24 26 29 32 32
50 50 51 51 52 52 52 53 53 52 52 52 51 52 52 52 52 52 53 53 50 49 50 51 52 53 53 54 53 53 53 52 50 49 48 48 47 47 47 47 47 48 49 49 49 51 54 54 52 52 52 52 52 52 52 52 52 52 52 53 55 52 52 55 54 51 51 51 51 51 48 48 49 46 43 45 45 40 35 34 31 28 26 27 29 31 34 34
51 51 52 52 53 53 54 55 55 54 54 54 53 53 53 53 53 54 54 55 54 52 51 51 53 55 55 56 55 54 54 53 53 51 50 50 50 50 50 50 50 50 49 49 49 52 54 54 53 52 52 53 54 54 53 53 53 53 52 54 54 53 54 56 57 56 55 53 52 52 50 50 51 50 47 47 48 44 38 37 36 32 30 30 30 31 33 34
49 50 50 51 52 53 54 55 55 56 56 56 56 55 55 55 55 55 56 56 57 56 55 54 53 55 56 57 56 56 55 55 54 53 52 52 51 51 52 52 52 52 50 50 51 53 54 54 53 53 53 54 55 56 54 53 55 56 55 54 54 55 56 57 58 58 58 57 55 53 53 51 52 54 51 49 50 48 44 43 42 39 34 32 31 31 31 31
47 48 49 50 51 52 52 53 54 54 55 56 57 57 57 57 57 57 57 58 58 58 58 58 56 56 56 56 56 56 55 54 54 53 52 51 51 50 50 50 50 51 50 50 52 54 53 52 51 52 53 54 54 54 51 52 56 58 55 53 53 56 57 57 58 59 59 60 57 56 57 54 52 55 55 52 51 51 50 48 47 45 39 35 33 31 30 30
48 49 50 51 51 51 50 51 51 52 52 53 54 55 56 57 57 57 57 58 59 58 60 60 58 57 56 54 55 54 53 52 52 51 50 49 49 49 49 49 47 48 49 50 52 53 51 50 50 51 52 53 52 50 48 51 55 56 54 52 54 55 56 58 59 60 61 61 60 60 61 59 56 56 58 55 54 54 53 51 52 51 43 39 37 32 32 32
49 50 50 50 50 50 49 48 49 49 50 50 51 52 53 53 54 54 54 56 58 57 58 58 57 56 55 54 53 52 51 50 50 49 48 48 47 46 47 47 46 47 48 49 51 51 49 49 49 50 51 51 50 49 50 52 54 55 55 55 56 57 58 60 60 61 62 62 62 62 62 61 59 58 59 59 59 58 56 54 48 38 31 32 37 36 35 36
48 49 49 50 50 49 49 47 47 48 48 49 49 50 51 51 51 50 51 54 56 57 56 56 55 55 55 55 54 52 51 51 49 49 48 47 46 45 44 44 44 45 46 48 49 49 49 49 50 50 50 49 48 49 50 51 52 53 54 55 56 57 58 59 60 60 61 61 63 62 60 60 59 59 59 61 62 59 56 54 40 27 27 34 41 43 40 40
47 48 49 50 51 51 50 49 49 50 51 51 51 51 51 51 51 51 53 55 56 55 55 55 54 54 53 53 53 53 51 50 49 48 47 46 46 45 45 44 44 44 44 45 45 46 47 48 48 48 48 47 46 46 46 47 48 48 49 51 52 54 56 56 57 56 57 60 60 58 56 56 57 60 61 62 63 58 51 46 41 42 46 49 51 49 46 44
51 52 53 53 54 54 54 54 53 52 52 53 54 54 54 53 52 53 56 57 55 54 53 53 53 53 53 52 52 52 51 50 50 48 47 47 47 47 47 46 46 45 45 44 44 44 44 44 44 44 43 43 43 43 44 44 45 45 47 48 50 52 53 54 54 53 54 56 56 54 54 54 55 59 62 60 58 58 52 43 46 55 58 55 54 54 50 46
56 56 57 57 57 57 56 56 55 52 50 50 53 54 55 56 56 57 58 56 54 54 53 52 53 53 54 54 54 54 53 51 50 49 48 47 47 48 48 48 48 49 49 48 47 47 46 45 43 42 42 41 41 43 43 44 44 45 45 46 47 50 50 51 52 51 51 53 53 54 55 57 57 58 60 57 52 54 56 53 55 61 62 58 56 55 54 49
58 58 58 58 58 58 57 55 54 53 51 51 51 50 50 54 58 59 57 54 53 53 52 53 55 56 56 56 55 55 54 52 50 49 48 47 47 47 47 48 49 49 51 51 51 51 51 48 46 46 45 44 44 45 46 46 46 46 45 44 45 47 49 51 51 51 51 53 53 54 56 59 60 58 57 56 53 52 55 57 58 58 60 60 57 57 57 53
57 57 58 57 57 57 55 53 52 52 52 54 55 54 52 53 56 56 53 50 50 50 50 52 54 55 56 56 55 54 52 52 50 49 49 49 50 49 48 47 47 46 48 50 52 53 54 53 51 50 48 47 47 47 46 45 46 46 44 45 47 47 49 50 51 52 53 54 53 54 57 59 58 58 56 54 54 54 55 57 57 55 56 59 58 58 58 56
56 55 54 53 53 54 52 50 50 50 50 52 54 57 58 58 57 57 54 52 51 50 48 49 50 52 54 53 53 52 51 51 51 51 52 52 52 52 52 51 49 47 47 48 51 53 55 57 55 52 49 48 49 48 47 46 47 47 46 46 49 48 48 50 52 54 56 59 59 57 58 58 56 56 56 54 55 56 56 58 57 55 56 57 58 58 58 59
56 55 54 52 51 50 48 48 49 49 49 49 51 53 55 56 57 57 56 55 55 54 52 51 51 53 54 53 53 53 53 54 54 54 55 54 54 53 53 52 51 50 49 49 51 52 56 58 57 55 53 51 50 51 51 51 52 54 54 53 53 52 51 53 54 55 55 60 64 63 62 60 57 57 57 57 58 58 57 58 58 58 58 59 60 60 60 60
59 58 57 55 54 54 51 51 51 51 50 50 51 52 52 52 53 52 53 52 53 53 53 54 54 54 55 55 55 56 56 56 55 55 56 56 56 55 53 52 51 51 51 52 53 54 57 59 59 58 58 56 55 54 55 55 56 59 60 59 59 60 60 59 60 61 60 62 65 65 65 63 61 61 62 62 62 61 61 62 62 62 61 61 60 60 60 61
63 63 62 61 60 57 54 51 51 51 50 49 50 52 51 49 48 46 47 48 49 51 52 53 55 55 55 56 57 57 58 58 57 57 57 57 58 57 56 55 55 55 56 57 58 58 59 62 61 60 61 61 60 59 59 59 59 59 60 59 60 63 64 64 66 68 68 69 71 69 68 66 64 65 67 68 66 65 66 67 65 62 60 59 60 61 62 63
64 64 64 63 60 56 53 53 53 53 52 51 49 50 49 48 49 49 50 52 54 56 57 57 58 58 58 58 58 59 60 62 61 61 62 62 62 61 61 62 62 62 63 63 64 63 63 65 65 64 64 65 63 64 64 62 61 61 62 63 63 64 65 66 67 69 69 70 71 70 70 69 67 65 66 70 71 69 68 68 67 64 62 61 61 61 62 62
66 65 65 63 60 57 55 56 59 60 60 58 57 57 58 60 61 60 61 62 62 63 63 63 63 63 62 62 63 63 65 67 67 66 67 68 67 66 66 67 67 67 68 67 66 65 63 64 66 65 66 68 67 66 65 62 62 63 64 65 66 65 65 65 66 66 66 67 68 68 69 68 65 64 64 66 69 68 66 65 65 65 65 64 61 57 57 57
66 66 66 64 61 58 57 58 60 61 62 62 61 63 65 67 68 68 69 69 67 66 66 65 65 65 65 65 65 65 67 69 70 70 71 71 71 71 71 71 69 68 68 66 64 63 62 60 61 60 60 63 63 60 59 59 60 60 60 60 60 59 58 60 62 62 61 62 60 57 57 54 50 53 57 59 61 63 64 64 64 64 65 65 64 62 62 62
67 66 66 66 64 61 60 60 60 60 60 60 58 57 59 61 63 66 68 70 70 68 66 66 65 65 65 65 64 64 65 67 68 69 70 70 69 69 70 69 67 65 63 63 61 58 56 55 54 55 54 55 55 55 55 54 55 55 55 53 51 50 52 55 59 59 59 58 54 50 53 53 46 46 51 55 57 59 61 64 65 67 68 68 68 68 68 68
67 67 67 66 66 64 63 63 62 61 61 58 56 55 56 57 57 59 62 65 67 67 67 66 65 63 63 62 62 62 63 64 65 65 65 66 65 65 64 63 62 60 57 57 56 53 52 52 54 55 55 55 55 55 55 53 52 53 51 49 46 46 49 52 54 55 57 58 56 56 62 63 57 54 55 58 61 62 63 65 66 68 70 71 71 71 71 72
67 67 67 67 66 66 66 65 64 63 61 59 58 58 58 57 57 56 57 59 60 61 62 62 61 60 60 59 59 59 59 60 61 60 60 61 60 60 60 59 59 58 57 57 58 57 57 58 58 59 60 60 59 59 59 57 55 53 50 49 49 50 53 57 58 59 61 61 59 60 62 60 58 57 57 59 62 65 67 69 70 71 72 73 75 77 77 78
68 68 67 67 67 67 67 66 64 63 62 61 60 59 58 58 56 54 55 56 56 56 56 56 55 55 55 56 56 56 56 57 59 58 57 57 57 57 57 57 57 58 59 60 60 61 62 63 62 62 63 63 62 62 63 62 60 59 58 58 59 61 62 62 62 62 65 65 64 65 65 63 61 62 61 61 63 66 68 70 72 74 76 78 79 80 82 83
68 68 67 66 66 66 66 65 64 62 61 59 58 57 57 56 55 53 54 54 54 54 54 54 54 54 54 55 55 55 55 56 57 58 56 55 56 56 55 55 55 56 57 58 59 61 63 64 64 63 64 64 64 64 65 66 67 67 67 65 65 64 62 58 56 56 58 60 61 62 62 62 62 62 64 66 67 69 71 72 73 75 77 79 80 82 84 86
67 66 66 65 65 64 64 63 61 60 59 57 57 56 55 55 54 54 54 55 55 54 54 55 55 55 55 56 56 56 55 55 56 56 55 55 55 56 56 55 55 56 56 57 58 59 62 64 63 63 65 66 66 66 67 68 69 69 68 67 65 65 64 63 62 60 60 62 65 63 63 67 69 70 73 76 76 77 78 78 79 80 81 82 83 84 85 86
65 65 64 64 63 62 62 61 59 59 58 58 58 57 56 55 55 54 54 55 55 55 55 56 57 56 56 56 56 57 56 56 56 56 55 55 55 56 57 56 56 57 57 57 58 59 62 64 62 62 65 65 65 66 67 68 70 70 71 70 69 69 70 72 73 73 72 76 79 76 76 79 80 79 80 81 81 80 80 80 81 82 83 84 85 85 85 85
63 62 61 62 61 61 60 59 58 58 59 59 59 58 57 56 56 56 56 57 57 57 57 58 58 57 56 56 57 57 57 57 57 56 55 56 57 57 58 58 58 57 58 58 59 60 63 63 63 64 66 65 65 65 67 69 72 72 72 73 72 72 73 75 77 77 78 81 83 82 83 84 83 82 81 80 80 80 80 80 81 82 83 84 85 85 85 86
61 60 59 59 59 58 58 58 58 58 58 58 59 58 57 58 58 58 59 59 59 59 58 59 59 58 57 57 57 57 56 56 56 56 56 56 57 58 58 59 59 58 58 58 59 61 63 63 64 65 67 67 65 65 67 70 72 73 74 73 72 73 74 75 75 76 78 81 81 82 84 84 83 82 81 80 80 80 81 82 82 83 83 84 84 84 85 85
59 59 58 58 58 57 57 57 57 57 57 58 58 58 58 59 59 60 61 61 61 60 60 60 60 60 59 58 58 57 56 56 56 57 57 57 57 57 58 58 58 58 58 58 58 60 61 62 63 64 68 68 64 64 68 70 72 75 74 71 71 73 75 75 75 76 77 79 80 82 83 84 83 82 82 82 82 81 80 80 79 79 80 80 80 80 81 81
58 58 58 58 58 57 57 57 57 57 58 57 57 57 58 58 59 60 61 61 61 61 61 61 61 61 60 59 58 57 57 57 57 57 57 57 58 58 58 58 58 59 59 59 60 61 61 63 64 65 69 69 65 66 70 71 74 76 72 68 70 73 75 76 77 77 77 78 80 81 82 82 81 81 81 81 81 80 78 77 76 77 79 79 79 79 79 80
Wind_Direction
257 258 259 259 260 261 261 261 261 261 262 261 261 261 261 261 261 262 264 266 268 270 271 273 275 277 280 283 285 287 289 290 289 289 289 289 288 289 289 290 291 292 293 294 295 296 297 298 299 299 301 301 303 303 305 305 306 309 311 313 311 303 303 304 302 302 305 304 302 299 297 297 293 293 296 296 293 289 285 282 283 284 281 280 279 280 280 278
257 257 258 259 259 260 260 261 262 262 262 263 263 262 262 262 263 265 266 268 269 271 273 274 276 278 280 282 285 287 289 290 289 288 289 288 287 287 287 288 289 291 292 292 293 294 295 296 297 298 299 300 302 302 303 303 304 307 308 311 305 299 304 303 300 302 304 303 301 298 296 295 292 293 296 295 292 290 287 282 286 291 286 284 284 283 281 279
257 258 258 259 259 260 261 261 262 263 264 264 264 264 265 265 266 267 268 270 271 272 274 275 277 279 281 283 285 287 289 290 289 288 288 287 286 286 286 286 287 289 290 291 291 292 292 294 295 296 296 298 300 300 301 301 301 304 306 305 299 298 303 301 299 302 303 301 300 297 296 294 292 294 295 293 293 293 288 283 289 294 289 289 290 289 285 280
258 258 259 259 260 261 261 262 263 264 264 265 266 266 267 268 269 269 270 271 272 273 274 275 277 278 280 283 285 287 289 289 287 286 287 286 285 285 285 286 286 287 288 288 289 290 291 292 293 294 295 297 298 298 300 299 299 302 303 301 297 297 301 301 299 301 301 301 300 296 295 293 292 294 293 294 298 298 291 287 292 294 289 288 290 292 290 284
258 258 259 260 261 261 262 263 264 264 265 266 267 267 268 269 270 271 272 272 274 275 275 277 278 279 281 282 284 286 287 286 283 284 285 284 284 284 285 285 286 287 287 287 288 289 290 290 291 292 293 295 296 297 297 297 298 300 301 299 296 296 300 300 299 301 302 301 299 295 294 293 293 293 293 299 307 304 294 290 291 290 287 287 289 292 292 290
259 260 260 261 261 262 262 263 264 265 266 266 267 268 269 270 271 272 273 273 275 275 277 278 279 280 281 283 284 285 286 283 280 281 282 282 283 284 284 284 285 285 286 287 287 288 289 289 290 290 292 294 295 295 295 295 295 297 298 295 292 295 300 299 299 302 302 299 298 295 294 296 295 294 299 314 316 303 292 288 288 288 286 289 292 292 292 292
262 262 262 263 263 263 264 264 264 265 266 267 268 269 271 272 273 274 274 275 276 277 278 279 280 281 281 283 283 284 285 280 277 279 280 281 283 283 282 282 283 284 285 286 287 287 288 289 289 290 291 292 292 292 292 292 292 295 295 290 289 294 296 296 299 301 299 297 296 294 295 296 296 300 314 331 319 297 287 285 287 288 287 290 292 291 290 290
264 265 265 265 265 265 265 266 266 267 267 268 269 270 272 273 274 275 275 276 277 278 279 279 280 279 280 281 280 283 280 273 275 279 280 280 281 281 281 282 283 284 285 286 287 287 288 288 289 290 290 290 291 291 291 291 292 294 292 289 291 293 293 295 298 299 296 295 293 292 293 294 296 305 329 337 310 291 286 287 291 290 288 289 287 287 288 289
265 266 266 266 266 266 267 267 268 268 269 269 270 271 272 273 274 274 275 275 276 276 276 277 277 277 278 277 278 279 271 269 276 280 279 278 277 278 280 281 283 284 285 286 287 288 288 288 289 289 289 289 290 291 291 292 293 293 292 291 292 291 291 293 295 296 294 292 291 291 291 293 296 305 330 327 298 290 291 295 297 295 293 289 285 284 285 288
265 266 267 267 268 268 268 268 269 269 269 270 270 271 271 272 272 272 273 273 274 274 274 274 273 274 274 274 276 272 266 270 276 277 277 277 276 277 279 281 282 283 284 286 287 287 287 288 288 288 289 290 291 292 292 293 294 294 292 292 291 290 290 291 292 292 289 288 289 290 291 294 296 303 319 309 290 290 295 298 299 298 298 292 289 288 286 287
264 265 266 267 268 269 269 269 269 269 269 270 270 270 270 271 271 272 272 272 272 272 272 272 271 271 270 271 272 264 264 272 276 276 277 277 277 279 281 282 282 283 284 285 285 285 286 286 287 287 288 290 291 292 293 294 294 294 293 291 290 288 287 289 289 285 284 287 290 290 292 294 297 302 309 299 288 290 293 296 298 297 297 295 295 295 292 290
263 264 265 267 268 269 269 270 270 269 269 269 269 270 270 271 271 272 272 272 272 272 272 272 271 270 269 270 269 263 265 272 275 275 277 277 280 281 282 283 283 283 283 284 283 284 284 284 285 285 287 289 290 291 292 293 293 293 293 291 289 287 287 288 285 281 283 289 293 292 292 294 296 300 301 295 291 291 292 294 295 295 297 297 298 297 297 294
262 263 264 265 266 267 268 269 269 269 269 269 269 270 270 271 271 272 272 272 272 272 272 272 272 272 271 271 270 269 270 271 272 274 275 278 280 282 282 283 283 283 283 282 282 282 282 282 283 284 286 287 288 290 291 291 291 292 292 291 291 288 285 283 280 282 288 293 294 292 291 294 295 295 295 293 292 292 292 293 293 294 297 297 297 296 294 292
262 263 264 265 266 266 267 267 268 268 268 268 269 269 269 270 270 271 271 272 272 273 273 273 274 274 274 274 272 272 273 272 272 273 275 278 279 280 281 281 282 282 281 281 280 280 281 281 282 283 284 285 287 289 291 291 289 290 291 289 289 287 284 281 280 285 291 292 291 290 290 292 292 290 289 289 290 291 291 291 292 294 294 293 293 291 289 286
262 263 264 265 265 266 266 266 267 267 268 268 268 268 268 269 269 269 270 271 272 272 273 274 275 275 275 275 274 273 272 272 273 274 275 277 277 278 279 280 280 280 280 279 279 280 280 281 281 281 282 284 287 290 292 291 289 291 290 286 285 285 285 283 283 289 291 289 288 287 288 289 289 288 285 285 286 288 289 291 294 295 290 288 288 285 282 280
263 263 264 264 265 265 266 266 267 267 268 268 269 269 269 269 269 269 270 270 271 272 273 274 275 275 275 275 274 274 273 273 273 274 275 275 276 277 277 278 279 279 278 279 279 279 279 280 280 280 281 284 288 293 293 289 289 290 287 284 285 286 287 286 287 290 291 288 287 286 286 288 290 290 285 283 284 286 290 294 297 294 287 284 281 277 276 276
263 264 264 264 264 265 265 266 266 267 267 268 269 270 270 270 270 271 271 271 271 272 273 273 274 275 275 276 275 274 273 272 272 272 273 274 275 276 276 277 277 277 278 277 277 278 278 278 278 279 280 284 290 293 290 286 288 287 284 284 286 287 288 288 290 292 288 286 285 285 285 288 292 290 286 285 286 288 291 294 296 292 286 281 277 273 273 274
264 265 264 264 264 264 265 265 266 266 267 268 268 269 270 270 271 271 271 271 272 273 273 273 274 274 275 276 276 274 272 271 271 271 272 273 274 275 276 276 276 276 276 276 277 277 277 277 277 278 281 286 291 290 285 284 286 285 284 285 286 286 286 288 292 292 286 282 282 283 285 288 290 289 289 290 290 289 290 293 293 289 283 279 276 276 275 270
265 265 265 265 265 265 266 266 266 267 268 268 268 268 269 270 270 270 271 271 272 272 273 273 273 274 275 276 275 273 271 270 270 270 271 272 273 274 274 274 275 275 275 276 276 276 276 276 276 278 283 288 287 284 283 284 285 285 286 285 285 286 286 289 292 290 286 283 281 281 284 286 287 290 293 294 291 288 289 292 290 285 282 280 278 278 273 266
264 264 265 265 266 266 266 266 267 267 268 268 268 269 269 269 270 270 271 271 272 272 273 273 273 273 274 275 274 273 272 271 270 270 270 271 271 271 271 272 273 273 274 275 274 274 275 276 276 279 284 283 281 281 283 284 285 285 285 284 284 285 286 289 290 288 286 284 282 282 282 282 284 289 292 292 289 287 290 292 287 282 281 282 281 274 267 264
263 264 265 265 266 266 266 267 267 267 267 268 269 270 270 270 270 270 270 271 272 273 274 274 275 274 275 275 274 274 274 273 272 272 272 271 270 270 270 271 271 272 273 272 272 274 275 275 277 280 280 278 278 281 282 283 283 283 283 283 283 283 285 286 285 286 286 284 284 285 283 280 282 284 285 285 284 285 290 290 284 281 280 281 277 269 265 262
263 264 265 265 266 266 267 267 267 267 267 268 269 269 270 270 270 270 270 270 270 272 274 275 275 275 276 275 274 274 275 275 276 276 275 274 273 272 271 270 271 271 271 271 273 275 275 276 278 278 276 277 279 280 280 280 280 281 282 282 282 283 285 284 282 284 285 284 284 285 284 283 283 282 281 281 281 284 288 286 281 276 275 276 273 270 268 265
263 264 265 265 266 266 267 267 267 267 268 268 268 268 269 269 270 270 270 270 269 269 271 273 275 275 275 275 275 275 276 277 279 279 279 278 276 275 273 272 272 271 271 272 274 275 275 276 277 277 277 278 278 278 277 278 278 279 280 280 281 282 283 283 283 284 284 284 284 283 283 284 283 281 280 281 282 284 286 283 278 273 271 272 272 271 270 268
263 263 264 264 265 265 265 266 266 267 267 267 267 267 267 268 268 269 270 271 270 270 270 270 271 273 274 274 275 276 277 279 280 280 280 279 278 277 275 275 274 273 274 275 274 273 274 275 276 277 278 278 277 277 276 276 276 277 277 277 278 280 280 281 283 284 283 283 283 284 283 282 283 282 281 283 285 287 288 283 279 276 274 273 272 269 268 268
262 262 262 262 263 263 264 264 265 265 265 265 266 266 267 267 268 269 270 270 271 272 272 269 268 269 272 274 275 276 278 279 280 280 280 279 279 278 276 276 275 275 275 274 272 271 272 273 274 275 275 275 275 274 274 275 275 274 273 274 276 277 278 279 280 281 282 282 282 283 282 280 280 281 282 285 288 290 290 287 283 280 276 274 272 270 267 266
261 261 261 261 262 262 263 264 264 264 265 264 265 265 266 267 267 268 269 270 270 272 273 272 271 270 271 272 274 276 278 279 279 279 280 280 279 278 277 276 276 275 274 273 272 271 272 272 272 272 272 272 271 271 272 272 272 271 272 273 274 274 275 276 277 278 279 280 281 281 281 278 277 280 282 286 288 289 290 291 290 288 282 276 274 273 271 267
262 262 262 262 262 262 262 264 265 265 266 266 266 266 266 266 266 267 269 270 271 272 273 273 274 274 274 275 275 276 277 279 279 280 280 279 278 277 276 275 275 274 274 273 273 273 273 272 270 269 269 268 269 269 269 269 269 270 271 272 272 272 273 273 274 275 276 278 278 279 279 279 278 279 283 287 287 288 290 294 298 298 291 283 281 279 276 273
264 263 264 263 262 261 261 263 265 266 266 267 267 266 266 267 267 268 270 272 271 272 273 274 276 277 278 279 279 279 279 280 280 280 279 278 277 275 274 274 273 273 273 273 273 273 272 270 269 268 267 266 266 266 266 267 268 269 270 271 271 272 272 272 273 274 275 276 277 277 279 280 280 281 284 286 287 289 292 296 300 300 295 289 288 285 280 277
263 262 263 265 265 264 263 265 267 268 267 268 268 268 268 269 269 270 271 271 271 272 274 276 277 278 279 281 282 282 282 282 280 279 278 277 277 275 274 273 272 272 271 271 272 272 271 271 270 269 268 267 267 267 267 269 270 270 271 272 273 273 273 274 274 275 276 277 277 278 282 283 282 282 283 283 285 290 295 296 292 285 286 289 288 287 281 276
263 262 262 264 265 266 265 267 269 269 269 269 269 269 269 269 270 271 270 269 270 272 274 276 278 279 282 283 284 283 282 282 280 279 278 276 275 275 274 274 273 273 272 272 272 272 272 272 272 272 272 272 271 271 271 272 272 273 274 274 274 275 275 276 277 278 279 278 279 281 284 286 283 281 281 282 285 290 293 292 284 281 285 287 287 287 283 276
267 267 267 267 268 269 270 272 272 273 274 274 272 271 270 270 269 269 270 269 270 272 273 277 281 283 283 283 282 281 281 281 280 278 277 276 275 274 273 273 274 275 275 275 275 275 274 273 273 274 275 275 274 274 274 275 275 275 275 275 276 277 278 279 279 279 280 281 283 285 285 283 280 278 278 280 285 288 288 283 281 286 287 285 285 285 281 278
267 268 269 270 270 271 271 272 272 272 274 276 276 275 275 274 271 269 270 272 273 273 274 278 282 283 281 280 281 281 281 280 279 278 278 278 277 277 277 277 277 278 278 278 278 278 277 277 277 276 276 276 277 277 278 277 276 275 275 276 276 278 279 278 278 279 280 282 283 283 282 280 277 276 277 279 281 283 283 281 280 284 285 284 283 281 279 279
267 268 269 270 271 271 272 271 269 267 267 268 270 270 271 273 273 272 274 276 277 276 277 278 280 281 280 280 281 280 280 279 278 279 280 281 281 281 282 282 282 282 281 281 280 280 278 278 277 277 277 278 280 281 280 278 277 275 275 275 275 277 278 279 280 281 280 279 277 277 277 277 277 278 279 281 282 280 280 280 279 279 281 282 282 280 279 277
264 265 268 270 271 273 273 272 270 267 265 264 265 266 265 267 271 273 275 275 274 274 275 277 278 279 279 279 278 277 276 276 277 279 280 281 281 282 282 282 281 279 279 280 281 281 281 279 277 276 276 277 279 279 279 277 276 275 275 275 276 278 281 283 282 280 277 275 273 273 274 276 278 280 280 281 282 280 278 277 276 275 276 278 278 277 277 275
260 263 265 267 269 271 270 271 270 267 266 265 265 265 265 266 269 273 274 272 271 271 272 272 273 274 274 274 274 274 274 275 276 276 276 277 278 279 280 281 280 278 277 278 279 279 279 279 279 277 274 274 274 275 276 275 274 274 274 274 277 281 282 280 278 276 275 275 273 272 273 274 277 278 279 280 279 277 276 276 277 277 276 276 276 275 275 274
262 265 265 266 269 269 270 272 270 269 272 273 271 268 266 266 269 271 271 271 271 271 270 269 267 268 269 269 270 271 271 272 273 274 275 276 276 276 278 278 278 278 278 278 278 277 277 278 278 276 273 272 272 272 273 273 273 273 272 273 276 278 275 273 272 270 270 272 273 275 275 275 275 275 275 275 275 275 275 275 276 276 276 276 276 276 276 275
269 269 268 269 271 271 274 274 272 274 276 273 271 270 267 266 266 267 268 269 269 269 269 268 267 267 268 269 269 269 270 270 271 272 274 275 275 276 276 275 275 276 278 279 279 279 278 277 276 276 276 275 274 274 273 272 273 272 272 274 275 274 271 269 269 268 268 268 270 273 274 275 275 275 275 274 274 274 274 274 274 275 276 277 277 277 276 275
273 273 273 273 273 274 273 270 272 276 271 261 262 265 265 265 265 266 267 268 269 269 269 270 270 270 270 270 270 271 272 273 273 273 274 274 275 275 275 275 275 276 278 280 280 280 280 278 276 276 279 279 278 278 277 276 275 275 274 275 274 273 272 271 270 271 272 271 271 272 272 272 272 273 274 274 273 273 273 274 275 275 273 272 271 271 271 272
274 275 275 275 275 274 269 263 266 269 261 256 259 263 263 266 266 266 268 270 271 272 272 273 274 274 273 274 274 274 275 276 276 276 276 276 275 275 275 277 278 279 280 280 280 281 281 281 279 277 278 279 279 278 279 279 278 277 276 274 273 272 273 272 272 272 273 274 274 274 273 272 271 270 270 270 271 270 269 269 269 268 267 266 267 267 269 270
272 274 274 275 275 273 270 265 264 264 262 262 263 263 264 266 267 269 270 271 273 274 274 275 276 277 277 277 278 277 277 277 277 278 278 278 279 279 278 279 281 281 282 282 283 283 283 283 283 281 279 279 279 279 279 278 277 275 274 274 274 274 274 274 273 274 274 275 275 276 276 276 275 273 270 268 267 266 265 263 261 261 261 263 264 266 266 267
270 271 273 273 273 273 271 269 269 268 268 267 266 265 266 267 269 271 272 273 275 276 277 277 278 279 279 279 279 279 278 277 277 277 278 278 280 281 280 281 282 282 283 284 284 285 285 284 285 284 281 280 281 280 279 278 277 276 275 275 275 274 273 273 274 274 274 275 276 277 277 275 271 269 268 266 263 261 261 261 259 258 257 257 258 260 261 262
269 270 271 271 272 272 271 271 272 272 271 272 272 269 267 267 267 268 270 273 275 277 278 279 279 280 279 279 279 278 278 278 278 277 278 278 279 280 281 281 282 283 283 283 283 283 284 282 281 280 280 281 282 281 280 279 278 278 276 275 274 272 272 272 273 273 273 272 272 271 270 268 261 259 261 261 260 259 258 259 259 259 260 260 261 262 262 262
269 270 270 270 271 272 272 272 273 274 274 275 274 270 269 269 268 268 269 270 271 273 275 276 277 278 278 278 277 277 277 277 277 277 278 278 279 279 280 281 281 281 281 280 280 280 278 277 278 279 280 280 279 279 279 278 276 274 273 271 270 270 272 273 273 274 273 271 269 268 269 269 267 264 261 258 257 257 257 257 257 259 260 262 265 267 267 267
269 269 270 270 271 271 272 273 274 275 275 275 273 272 272 273 273 272 270 269 269 270 270 272 273 274 274 275 275 275 275 275 275 276 276 276 277 277 278 278 278 279 278 277 278 277 275 275 276 278 278 279 278 277 276 275 273 270 268 268 268 268 270 272 272 271 270 269 268 268 268 269 271 269 264 261 259 258 259 260 260 261 263 264 267 269 271 273
268 269 269 270 270 271 271 272 273 274 274 274 274 274 274 274 274 273 271 271 271 270 271 272 272 272 273 273 273 273 274 274 275 275 275 276 275 274 274 274 274 274 274 274 274 274 274 274 274 274 275 275 275 273 273 272 271 269 270 271 272 272 273 275 274 271 268 267 266 264 265 267 269 270 270 269 267 266 266 266 265 266 268 269 271 272 273 274
267 268 269 270 270 270 271 272 272 273 273 273 272 272 273 274 274 273 272 272 272 273 274 274 274 274 273 273 272 272 272 273 274 275 276 276 275 274 273 273 272 271 271 271 270 270 271 270 270 271 271 271 271 271 271 271 270 270 271 272 273 273 274 274 273 271 270 271 269 267 268 269 269 271 274 274 273 272 271 269 268 268 269 270 270 271 271 272
267 268 268 269 270 270 271 271 271 271 271 271 270 271 272 273 274 274 274 274 274 275 275 274 275 275 274 274 274 274 275 275 274 275 277 277 276 276 276 276 275 274 273 272 271 270 270 269 269 270 270 270 271 271 272 272 271 271 270 269 269 270 271 269 268 268 269 270 270 269 271 272 271 272 274 274 274 273 272 271 271 271 271 271 270 270 270 271
266 267 268 268 269 270 270 271 271 271 270 270 271 272 273 274 274 274 274 273 274 274 274 274 274 274 274 275 275 275 276 276 276 276 277 277 277 277 277 277 276 276 276 275 274 273 272 272 272 272 271 271 271 271 272 272 271 271 270 269 268 268 268 268 267 267 268 269 270 271 271 272 273 273 273 273 273 273 273 273 273 274 274 273 273 273 273 272
266 267 267 267 268 269 269 270 270 271 271 272 272 273 274 274 274 274 273 273 273 273 273 273 274 274 274 274 274 275 276 276 276 276 277 277 277 277 277 276 276 276 276 275 274 274 273 274 274 273 272 272 272 272 273 272 272 271 271 271 270 269 268 269 269 270 270 271 273 274 274 273 274 274 274 274 274 274 273 273 273 273 273 273 273 273 273 273
266 266 267 267 268 268 269 269 270 270 271 272 273 274 274 273 274 274 274 274 274 274 275 275 275 275 275 275 276 276 277 276 276 276 276 276 276 276 277 277 277 277 276 275 275 274 274 275 275 275 275 273 273 273 273 272 272 272 272 271 272 272 271 271 272 272 273 273 274 275 275 275 275 275 275 275 274 274 274 274 274 274 274 274 274 273 273 272
265 266 266 267 267 267 268 269 269 269 270 271 272 273 272 273 273 273 273 274 274 275 275 276 276 277 277 277 277 278 278 277 277 277 277 276 276 276 276 276 277 277 278 278 277 276 276 276 276 276 275 274 275 275 273 272 272 271 271 273 274 274 274 274 273 273 273 274 274 274 275 275 276 276 275 275 275 274 274 274 274 274 274 273 273 272 272 272
264 264 265 265 265 266 267 268 268 269 269 270 271 272 272 273 273 273 273 273 274 275 275 276 276 277 277 277 277 277 277 277 276 277 277 277 277 277 277 277 278 279 280 279 278 278 278 278 278 277 275 276 277 276 275 273 271 271 274 277 276 275 275 274 274 273 274 274 274 274 275 275 276 276 276 276 275 275 274 273 272 272 271 271 271 271 271 271
Height
5884 5884 5885 5885 5885 5886 5886 5886 5886 5887 5887 5887 5887 5888 5888 5888 5888 5888 5889 5889 5889 5889 5889 5889 5888 5888 5888 5888 5888 5888 5888 5887 5887 5887 5887 5887 5887 5886 5886 5886 5885 5885 5885 5884 5884 5883 5883 5882 5881 5881 5880 5880 5879 5879 5878 5877 5877 5877 5876 5876 5874 5872 5871 5870 5869 5869 5869 5868 5867 5867 5866 5865 5864 5862 5862 5862 5860 5860 5858 5857 5857 5858 5856 5856 5856 5856 5856 5856
5882 5882 5883 5883 5883 5884 5884 5884 5884 5885 5885 5885 5886 5886 5886 5886 5886 5887 5887 5887 5887 5887 5887 5887 5887 5887 5887 5887 5887 5886 5886 5886 5885 5885 5885 5885 5885 5884 5884 5883 5883 5883 5882 5882 5881 5881 5880 5880 5879 5878 5878 5877 5877 5876 5876 5875 5875 5875 5874 5874 5872 5870 5869 5868 5866 5866 5866 5866 5865 5864 5863 5863 5862 5860 5859 5859 5858 5857 5856 5854 5855 5856 5854 5853 5853 5853 5854 5853
5880 5880 5881 5881 5881 5882 5882 5882 5882 5883 5883 5883 5883 5883 5884 5884 5884 5884 5884 5885 5885 5885 5885 5885 5885 5885 5885 5885 5885 5885 5884 5883 5882 5882 5883 5883 5882 5882 5881 5881 5881 5880 5880 5879 5879 5878 5878 5877 5876 5876 5875 5875 5874 5873 5873 5873 5872 5873 5872 5872 5870 5868 5867 5865 5863 5863 5863 5863 5863 5862 5861 5860 5859 5858 5857 5857 5856 5855 5854 5852 5853 5854 5852 5850 5849 5849 5851 5851
5877 5878 5878 5878 5879 5879 5880 5880 5880 5880 5880 5881 5881 5881 5881 5881 5882 5881 5882 5882 5882 5882 5882 5882 5882 5882 5883 5883 5883 5883 5882 5881 5879 5879 5880 5880 5879 5879 5879 5878 5878 5878 5877 5877 5876 5875 5875 5874 5874 5873 5873 5872 5872 5871 5870 5870 5869 5870 5870 5869 5868 5866 5865 5863 5861 5860 5860 5860 5860 5859 5858 5857 5857 5856 5855 5854 5853 5854 5852 5849 5851 5852 5849 5848 5846 5846 5847 5847
5875 5875 5875 5876 5876 5876 5877 5877 5877 5878 5878 5878 5878 5878 5878 5879 5879 5879 5879 5879 5879 5879 5879 5879 5879 5880 5880 5880 5880 5880 5880 5878 5876 5876 5877 5877 5876 5876 5876 5875 5875 5875 5875 5874 5873 5873 5872 5872 5871 5870 5870 5869 5869 5868 5868 5867 5866 5867 5867 5866 5864 5863 5863 5861 5859 5858 5857 5856 5856 5855 5855 5855 5854 5853 5852 5851 5851 5852 5850 5846 5847 5848 5847 5846 5845 5844 5844 5843
5871 5872 5872 5872 5873 5873 5874 5874 5874 5875 5875 5875 5875 5875 5875 5876 5876 5876 5876 5875 5876 5876 5876 5876 5876 5877 5877 5877 5878 5877 5877 5875 5873 5874 5874 5874 5873 5873 5873 5873 5872 5872 5872 5871 5871 5870 5870 5869 5868 5868 5867 5867 5866 5865 5865 5864 5863 5864 5865 5863 5861 5860 5860 5859 5857 5856 5854 5853 5852 5852 5851 5852 5851 5850 5850 5849 5849 5850 5847 5843 5843 5844 5844 5844 5844 5842 5841 5840
5867 5868 5868 5869 5869 5870 5870 5870 5871 5871 5872 5872 5872 5872 5872 5872 5872 5872 5872 5872 5873 5872 5873 5873 5873 5874 5873 5875 5874 5875 5875 5870 5868 5871 5871 5870 5871 5870 5870 5870 5870 5870 5869 5868 5868 5867 5867 5866 5865 5865 5864 5864 5864 5863 5861 5861 5860 5860 5861 5860 5858 5857 5857 5856 5854 5853 5851 5850 5849 5847 5848 5849 5847 5847 5849 5848 5847 5846 5843 5841 5841 5841 5842 5842 5842 5840 5838 5838
5863 5864 5864 5865 5865 5866 5866 5866 5867 5867 5868 5868 5868 5869 5869 5869 5869 5869 5868 5869 5869 5869 5869 5869 5870 5870 5870 5871 5871 5873 5872 5865 5864 5868 5868 5868 5868 5867 5867 5867 5867 5867 5866 5866 5865 5864 5864 5863 5862 5861 5861 5861 5860 5860 5858 5857 5857 5857 5857 5856 5856 5855 5854 5853 5852 5850 5848 5847 5845 5843 5844 5846 5844 5844 5848 5847 5843 5840 5839 5839 5839 5839 5839 5839 5838 5837 5835 5835
5859 5860 5860 5861 5861 5862 5862 5862 5863 5863 5864 5864 5864 5865 5865 5865 5865 5865 5864 5865 5865 5865 5865 5865 5866 5866 5867 5868 5869 5871 5867 5862 5863 5865 5864 5864 5864 5864 5864 5864 5864 5864 5863 5863 5862 5861 5860 5859 5859 5858 5857 5857 5857 5857 5855 5854 5854 5854 5853 5853 5853 5852 5851 5850 5849 5847 5844 5843 5841 5839 5840 5842 5841 5841 5846 5845 5839 5835 5836 5837 5837 5836 5837 5836 5834 5833 5833 5832
5855 5856 5856 5857 5857 5858 5858 5859 5859 5860 5860 5860 5860 5861 5861 5861 5861 5861 5860 5861 5861 5861 5861 5862 5862 5862 5863 5864 5866 5868 5862 5859 5862 5861 5861 5861 5861 5861 5861 5861 5861 5860 5860 5859 5858 5857 5856 5856 5855 5854 5853 5854 5854 5853 5852 5851 5850 5850 5849 5849 5849 5848 5848 5847 5847 5845 5840 5839 5838 5835 5836 5839 5837 5838 5842 5842 5836 5833 5833 5835 5834 5833 5834 5832 5830 5830 5830 5830
5851 5851 5852 5853 5854 5854 5855 5855 5856 5856 5856 5856 5857 5857 5857 5857 5857 5857 5857 5857 5857 5857 5857 5858 5858 5859 5860 5861 5864 5864 5859 5858 5859 5857 5857 5857 5857 5858 5858 5858 5858 5857 5856 5855 5854 5853 5853 5852 5851 5850 5849 5850 5850 5849 5849 5848 5846 5846 5845 5844 5845 5844 5845 5845 5843 5841 5837 5836 5835 5831 5831 5835 5835 5835 5838 5837 5833 5831 5831 5832 5832 5831 5830 5829 5828 5827 5827 5827
5847 5847 5848 5849 5850 5851 5851 5852 5852 5852 5853 5853 5853 5854 5854 5854 5854 5854 5853 5854 5854 5854 5854 5854 5855 5855 5856 5859 5861 5859 5857 5857 5856 5854 5853 5852 5853 5854 5854 5854 5854 5853 5852 5851 5850 5849 5848 5848 5847 5846 5845 5845 5846 5845 5845 5845 5843 5842 5840 5839 5841 5840 5841 5842 5839 5836 5834 5833 5833 5827 5824 5830 5833 5833 5834 5831 5828 5829 5829 5829 5829 5828 5827 5826 5825 5824 5824 5824
5843 5843 5844 5845 5846 5847 5847 5848 5848 5849 5849 5849 5850 5850 5851 5851 5851 5850 5850 5850 5850 5850 5850 5850 5851 5851 5853 5856 5857 5855 5855 5854 5852 5850 5849 5849 5850 5850 5850 5850 5850 5849 5848 5847 5846 5845 5844 5844 5843 5842 5842 5841 5842 5841 5841 5841 5839 5838 5836 5834 5835 5835 5837 5839 5834 5832 5833 5831 5829 5823 5817 5823 5831 5831 5830 5827 5824 5825 5825 5826 5826 5825 5824 5822 5822 5821 5820 5820
5838 5839 5840 5841 5842 5842 5843 5844 5844 5844 5845 5845 5846 5846 5847 5847 5847 5847 5846 5846 5846 5846 5846 5846 5847 5847 5848 5852 5853 5852 5851 5850 5849 5847 5847 5847 5846 5846 5846 5846 5845 5845 5844 5843 5842 5841 5840 5839 5838 5838 5838 5837 5837 5838 5837 5836 5835 5834 5832 5829 5830 5828 5831 5835 5832 5831 5832 5828 5825 5819 5811 5815 5825 5828 5827 5823 5820 5820 5820 5822 5823 5823 5822 5819 5818 5817 5816 5816
5834 5835 5836 5836 5837 5838 5838 5839 5839 5840 5840 5841 5841 5842 5842 5842 5842 5842 5842 5842 5842 5842 5842 5842 5842 5842 5843 5848 5849 5848 5847 5846 5844 5844 5844 5843 5843 5843 5842 5841 5841 5840 5839 5838 5838 5837 5836 5835 5834 5833 5833 5833 5833 5834 5833 5830 5829 5831 5827 5824 5825 5823 5824 5829 5830 5830 5829 5824 5821 5816 5807 5808 5818 5824 5823 5820 5818 5816 5815 5817 5819 5819 5818 5816 5815 5813 5812 5811
5829 5830 5831 5832 5832 5833 5833 5834 5834 5835 5835 5836 5837 5837 5837 5837 5838 5837 5837 5837 5837 5837 5837 5837 5838 5837 5838 5842 5844 5843 5843 5841 5840 5840 5840 5839 5839 5839 5838 5837 5837 5836 5835 5834 5833 5833 5832 5830 5829 5828 5828 5829 5830 5830 5828 5824 5824 5826 5822 5818 5819 5819 5817 5821 5826 5828 5824 5819 5815 5812 5804 5802 5810 5818 5818 5815 5814 5813 5812 5813 5815 5815 5814 5812 5810 5808 5807 5807
5825 5826 5826 5827 5827 5828 5828 5828 5829 5829 5830 5831 5831 5832 5832 5832 5833 5833 5832 5833 5832 5833 5832 5832 5833 5832 5833 5837 5839 5839 5838 5836 5836 5835 5835 5835 5835 5835 5834 5833 5833 5831 5830 5830 5829 5829 5828 5826 5825 5824 5824 5826 5828 5827 5822 5817 5819 5820 5817 5814 5814 5814 5813 5813 5819 5824 5820 5813 5809 5806 5802 5800 5804 5809 5811 5811 5810 5809 5809 5810 5810 5810 5809 5807 5805 5804 5803 5802
5820 5821 5821 5822 5822 5822 5823 5823 5824 5824 5825 5826 5826 5826 5827 5827 5827 5827 5827 5827 5827 5828 5827 5828 5828 5827 5828 5831 5833 5833 5833 5831 5831 5831 5831 5831 5831 5831 5830 5829 5828 5827 5826 5825 5825 5824 5822 5821 5820 5818 5820 5824 5825 5822 5815 5813 5814 5813 5812 5811 5809 5810 5809 5809 5813 5816 5814 5808 5804 5802 5799 5799 5799 5800 5804 5808 5807 5804 5805 5806 5806 5805 5804 5802 5801 5800 5799 5796
5815 5816 5816 5816 5817 5817 5818 5818 5818 5819 5819 5820 5820 5821 5821 5821 5822 5822 5822 5822 5822 5822 5822 5822 5823 5822 5823 5825 5826 5826 5826 5826 5826 5826 5827 5827 5827 5826 5825 5824 5824 5823 5821 5821 5820 5819 5817 5816 5814 5815 5819 5821 5819 5814 5810 5810 5810 5808 5807 5807 5805 5804 5804 5806 5808 5808 5805 5801 5799 5799 5798 5795 5794 5795 5798 5802 5801 5799 5800 5803 5802 5800 5799 5797 5797 5795 5792 5789
5809 5810 5810 5811 5811 5812 5812 5813 5813 5814 5814 5814 5814 5815 5815 5815 5816 5816 5816 5817 5817 5817 5817 5817 5817 5817 5818 5819 5819 5818 5819 5820 5821 5822 5823 5823 5822 5821 5820 5820 5819 5818 5817 5817 5815 5814 5813 5810 5809 5813 5817 5815 5811 5809 5807 5807 5806 5804 5802 5801 5801 5799 5799 5802 5803 5801 5799 5794 5791 5795 5795 5791 5792 5793 5793 5793 5793 5793 5796 5798 5797 5796 5794 5792 5791 5789 5786 5784
5803 5804 5805 5805 5806 5806 5807 5807 5808 5808 5808 5808 5809 5809 5809 5810 5809 5809 5810 5811 5811 5811 5811 5812 5811 5811 5812 5812 5812 5811 5811 5813 5815 5817 5817 5818 5817 5816 5815 5815 5813 5813 5813 5812 5809 5809 5809 5803 5805 5811 5811 5807 5805 5805 5804 5802 5800 5799 5797 5795 5795 5794 5794 5796 5797 5795 5794 5789 5786 5788 5788 5786 5788 5790 5788 5787 5786 5788 5791 5793 5792 5791 5789 5787 5785 5783 5781 5780
5798 5799 5799 5799 5800 5801 5801 5801 5802 5802 5803 5803 5803 5803 5803 5803 5803 5803 5803 5804 5807 5806 5804 5805 5805 5804 5805 5804 5805 5806 5804 5806 5808 5810 5811 5812 5812 5811 5810 5809 5808 5808 5807 5806 5805 5805 5801 5798 5802 5805 5803 5801 5801 5800 5798 5796 5795 5794 5792 5790 5788 5789 5789 5788 5789 5790 5788 5785 5782 5782 5781 5780 5782 5784 5783 5781 5781 5784 5786 5786 5787 5786 5784 5782 5780 5778 5776 5776
5792 5793 5793 5793 5794 5794 5794 5795 5795 5796 5797 5797 5798 5798 5797 5797 5797 5797 5797 5797 5800 5802 5801 5800 5798 5798 5798 5797 5797 5799 5798 5800 5801 5802 5804 5804 5804 5805 5804 5803 5803 5802 5801 5801 5802 5799 5795 5794 5797 5798 5796 5796 5795 5793 5792 5790 5790 5789 5788 5785 5783 5784 5784 5780 5780 5783 5783 5781 5778 5777 5775 5774 5774 5775 5777 5776 5775 5780 5782 5780 5780 5780 5779 5777 5776 5774 5771 5771
5786 5786 5787 5787 5787 5787 5788 5788 5789 5790 5790 5791 5791 5791 5791 5791 5791 5791 5791 5790 5791 5795 5796 5796 5794 5791 5790 5790 5791 5792 5792 5794 5794 5795 5796 5796 5796 5797 5797 5797 5796 5795 5796 5796 5795 5792 5789 5789 5791 5791 5791 5790 5788 5787 5786 5784 5784 5784 5783 5780 5779 5779 5778 5775 5774 5774 5774 5775 5774 5772 5770 5769 5767 5766 5769 5770 5769 5772 5775 5774 5773 5773 5773 5772 5770 5769 5768 5767
5779 5780 5780 5781 5781 5781 5781 5782 5782 5783 5783 5784 5785 5785 5785 5785 5786 5786 5786 5784 5784 5785 5787 5789 5790 5787 5785 5785 5785 5786 5787 5788 5788 5788 5788 5788 5789 5789 5789 5789 5789 5789 5789 5789 5788 5785 5784 5784 5785 5785 5784 5783 5781 5780 5779 5779 5778 5777 5777 5776 5775 5774 5773 5772 5771 5769 5767 5767 5768 5768 5765 5764 5762 5759 5761 5764 5763 5764 5766 5766 5764 5764 5766 5767 5765 5765 5764 5764
5774 5774 5774 5774 5774 5775 5775 5775 5776 5776 5777 5778 5778 5779 5779 5780 5780 5780 5780 5779 5778 5778 5777 5779 5781 5781 5781 5781 5780 5781 5782 5781 5781 5781 5781 5781 5781 5781 5781 5781 5781 5781 5781 5780 5779 5778 5778 5779 5779 5778 5777 5776 5774 5774 5774 5773 5770 5770 5771 5771 5771 5769 5768 5767 5766 5764 5762 5760 5761 5762 5759 5758 5757 5754 5755 5758 5758 5756 5757 5757 5755 5755 5759 5760 5760 5760 5760 5760
5768 5768 5768 5769 5769 5769 5770 5769 5770 5770 5771 5772 5772 5773 5773 5774 5774 5775 5775 5773 5773 5772 5770 5770 5772 5773 5775 5775 5775 5776 5776 5775 5775 5775 5775 5774 5775 5775 5774 5774 5774 5773 5773 5772 5771 5771 5772 5772 5772 5771 5770 5769 5768 5769 5768 5766 5763 5764 5765 5765 5764 5763 5763 5761 5760 5759 5757 5756 5755 5755 5754 5753 5752 5750 5750 5751 5751 5750 5749 5750 5747 5745 5749 5752 5753 5755 5755 5755
5763 5762 5762 5763 5763 5763 5764 5764 5764 5765 5765 5766 5767 5767 5767 5768 5769 5770 5770 5768 5767 5766 5763 5764 5765 5766 5767 5767 5768 5769 5770 5770 5769 5769 5768 5768 5768 5768 5768 5768 5767 5766 5766 5765 5764 5764 5765 5764 5764 5763 5763 5763 5763 5762 5761 5759 5758 5759 5759 5758 5757 5757 5756 5755 5754 5753 5752 5751 5750 5749 5749 5749 5747 5747 5746 5744 5743 5743 5744 5745 5743 5740 5740 5744 5745 5748 5750 5750
5756 5756 5756 5757 5757 5758 5758 5759 5759 5759 5760 5760 5761 5761 5762 5763 5764 5765 5764 5762 5760 5759 5759 5759 5760 5760 5760 5760 5760 5762 5762 5763 5763 5762 5762 5761 5761 5762 5761 5761 5761 5760 5759 5758 5758 5758 5758 5757 5757 5756 5756 5756 5756 5755 5755 5754 5753 5753 5753 5751 5750 5750 5749 5748 5748 5747 5747 5746 5744 5745 5745 5745 5744 5743 5742 5738 5736 5738 5739 5738 5738 5738 5737 5737 5738 5741 5743 5743
5750 5750 5751 5751 5751 5751 5752 5753 5753 5753 5754 5755 5755 5756 5756 5757 5758 5758 5757 5756 5755 5754 5754 5754 5754 5755 5756 5755 5754 5754 5755 5755 5755 5755 5755 5755 5755 5755 5755 5754 5754 5753 5752 5752 5753 5752 5752 5752 5751 5751 5750 5750 5750 5750 5749 5748 5747 5747 5747 5745 5744 5742 5742 5742 5742 5742 5740 5739 5740 5742 5742 5742 5740 5737 5735 5733 5732 5734 5736 5732 5729 5731 5733 5731 5731 5733 5733 5733
5744 5744 5745 5746 5746 5746 5747 5746 5747 5747 5748 5748 5748 5749 5750 5751 5753 5752 5749 5750 5750 5749 5750 5749 5748 5750 5750 5749 5748 5747 5747 5747 5747 5747 5748 5748 5749 5749 5749 5749 5748 5747 5746 5746 5747 5746 5747 5747 5746 5747 5746 5745 5744 5743 5743 5742 5741 5741 5740 5739 5738 5737 5736 5736 5735 5736 5735 5734 5736 5737 5736 5736 5735 5732 5728 5730 5731 5730 5730 5728 5723 5722 5725 5726 5726 5726 5724 5723
5738 5738 5739 5740 5740 5740 5741 5741 5741 5742 5742 5742 5742 5742 5743 5743 5744 5744 5743 5745 5744 5743 5745 5744 5742 5743 5742 5741 5741 5739 5739 5739 5739 5739 5739 5740 5741 5742 5743 5742 5742 5741 5740 5741 5740 5740 5741 5741 5741 5742 5741 5740 5738 5737 5737 5736 5735 5735 5734 5734 5733 5731 5731 5729 5728 5729 5731 5731 5730 5730 5728 5726 5727 5726 5723 5727 5730 5727 5724 5724 5721 5717 5716 5718 5720 5719 5719 5718
5732 5732 5732 5733 5734 5734 5734 5734 5735 5736 5737 5737 5737 5737 5737 5735 5735 5737 5737 5739 5738 5736 5738 5737 5735 5736 5735 5735 5734 5733 5732 5732 5733 5733 5732 5733 5735 5736 5736 5735 5735 5734 5733 5734 5733 5733 5735 5736 5737 5736 5735 5734 5733 5732 5731 5730 5729 5728 5729 5728 5727 5727 5725 5722 5723 5724 5725 5724 5723 5723 5721 5718 5719 5719 5719 5722 5723 5722 5720 5717 5716 5714 5710 5710 5712 5711 5711 5713
5725 5726 5726 5727 5727 5727 5727 5728 5728 5729 5729 5730 5731 5731 5732 5730 5730 5731 5732 5733 5732 5731 5731 5730 5729 5729 5729 5729 5728 5726 5726 5726 5728 5728 5727 5728 5729 5730 5731 5730 5729 5727 5726 5726 5725 5725 5727 5729 5731 5730 5730 5729 5728 5726 5724 5723 5722 5722 5723 5721 5720 5722 5720 5717 5717 5717 5716 5715 5715 5717 5715 5714 5715 5714 5714 5715 5713 5713 5714 5710 5708 5708 5706 5705 5705 5704 5704 5704
5719 5719 5720 5721 5721 5721 5721 5721 5721 5722 5721 5723 5723 5723 5726 5726 5726 5725 5725 5726 5724 5724 5725 5724 5724 5723 5723 5723 5721 5721 5720 5719 5721 5722 5721 5722 5723 5724 5725 5725 5723 5721 5720 5719 5718 5717 5717 5720 5723 5722 5723 5724 5721 5719 5718 5717 5716 5715 5716 5715 5714 5717 5715 5710 5709 5709 5709 5706 5707 5710 5708 5710 5713 5709 5707 5708 5705 5705 5706 5703 5701 5701 5700 5699 5698 5697 5697 5696
5711 5712 5713 5714 5715 5714 5714 5715 5715 5714 5715 5715 5714 5716 5720 5721 5720 5718 5717 5718 5716 5716 5717 5716 5717 5717 5716 5717 5717 5715 5713 5713 5714 5714 5714 5715 5716 5718 5720 5720 5717 5715 5714 5712 5710 5710 5709 5712 5715 5712 5713 5716 5714 5713 5713 5711 5711 5709 5708 5709 5710 5710 5708 5704 5699 5701 5702 5696 5697 5703 5702 5704 5709 5704 5701 5701 5698 5698 5698 5696 5695 5693 5692 5691 5689 5689 5688 5687
5703 5704 5706 5707 5707 5707 5708 5708 5708 5708 5709 5708 5706 5709 5713 5714 5713 5712 5711 5711 5709 5708 5707 5706 5709 5711 5710 5711 5711 5709 5706 5706 5707 5707 5708 5708 5707 5711 5714 5713 5712 5710 5709 5705 5702 5703 5701 5702 5708 5706 5704 5706 5707 5706 5706 5706 5705 5702 5700 5704 5704 5700 5699 5698 5692 5690 5692 5687 5688 5696 5697 5698 5701 5697 5693 5693 5692 5691 5690 5688 5686 5686 5685 5683 5681 5681 5679 5679
5695 5695 5697 5699 5699 5700 5702 5702 5701 5702 5702 5700 5699 5702 5705 5707 5708 5706 5704 5704 5701 5700 5700 5699 5701 5702 5703 5704 5704 5703 5700 5698 5700 5701 5702 5701 5701 5704 5706 5704 5705 5705 5703 5699 5695 5695 5693 5692 5699 5702 5697 5695 5698 5698 5696 5698 5698 5695 5694 5696 5695 5690 5688 5689 5684 5681 5682 5678 5678 5685 5689 5692 5694 5692 5687 5685 5686 5686 5681 5679 5677 5677 5677 5675 5673 5672 5671 5670
5687 5687 5688 5691 5692 5692 5695 5696 5696 5696 5695 5694 5696 5698 5699 5701 5701 5699 5698 5697 5695 5693 5693 5693 5694 5694 5695 5696 5696 5696 5693 5691 5691 5693 5693 5692 5693 5697 5698 5696 5697 5697 5695 5692 5688 5687 5685 5681 5686 5696 5693 5686 5689 5691 5688 5689 5689 5686 5684 5684 5684 5683 5680 5678 5675 5673 5673 5670 5668 5671 5675 5680 5685 5687 5683 5678 5677 5677 5674 5672 5670 5668 5667 5666 5664 5664 5663 5661
5680 5679 5680 5684 5684 5683 5685 5686 5686 5688 5687 5690 5693 5693 5692 5693 5693 5693 5691 5688 5687 5685 5685 5686 5686 5686 5688 5689 5688 5688 5686 5683 5684 5685 5683 5684 5685 5687 5688 5688 5688 5687 5685 5683 5681 5679 5677 5672 5672 5683 5685 5677 5679 5682 5681 5680 5678 5675 5674 5673 5673 5673 5672 5668 5665 5666 5667 5662 5659 5658 5658 5665 5673 5676 5676 5671 5667 5665 5664 5663 5662 5659 5658 5657 5656 5655 5655 5654
5673 5672 5673 5676 5675 5675 5675 5674 5676 5679 5678 5682 5686 5685 5684 5684 5685 5685 5682 5679 5677 5676 5677 5678 5678 5679 5680 5681 5681 5680 5677 5675 5677 5677 5675 5677 5678 5676 5678 5680 5679 5677 5676 5676 5674 5671 5669 5666 5663 5667 5671 5670 5670 5671 5670 5669 5668 5666 5665 5664 5665 5665 5664 5660 5655 5658 5659 5653 5651 5651 5647 5652 5662 5665 5664 5662 5657 5655 5655 5653 5652 5650 5649 5647 5647 5646 5645 5644
5665 5664 5665 5668 5667 5667 5666 5665 5668 5669 5668 5672 5677 5676 5675 5676 5677 5677 5673 5671 5669 5668 5669 5669 5670 5671 5670 5671 5672 5670 5668 5667 5668 5669 5667 5669 5671 5668 5669 5671 5669 5668 5668 5666 5665 5664 5661 5658 5657 5656 5659 5662 5663 5660 5660 5660 5659 5657 5656 5657 5658 5657 5656 5653 5648 5649 5650 5645 5645 5645 5638 5639 5650 5657 5656 5652 5649 5647 5646 5644 5642 5641 5639 5637 5636 5636 5636 5635
5657 5655 5657 5659 5658 5658 5657 5657 5660 5660 5660 5665 5667 5665 5665 5666 5668 5668 5666 5664 5662 5662 5662 5662 5663 5663 5662 5663 5663 5662 5661 5658 5658 5661 5660 5659 5662 5662 5662 5663 5662 5660 5660 5658 5658 5658 5655 5651 5650 5648 5649 5653 5655 5653 5652 5652 5651 5649 5649 5651 5651 5650 5649 5646 5643 5642 5639 5636 5639 5638 5629 5629 5640 5647 5647 5643 5641 5639 5637 5636 5634 5632 5630 5628 5626 5625 5625 5624
5648 5647 5649 5650 5649 5649 5649 5650 5653 5653 5654 5656 5655 5655 5656 5656 5658 5659 5657 5655 5654 5654 5654 5654 5656 5655 5654 5655 5654 5653 5653 5650 5649 5653 5653 5652 5654 5655 5655 5654 5654 5653 5652 5651 5651 5650 5648 5646 5645 5642 5640 5642 5646 5646 5644 5644 5643 5641 5641 5643 5643 5644 5644 5640 5638 5636 5630 5628 5632 5629 5622 5624 5631 5633 5633 5634 5632 5630 5629 5628 5626 5623 5621 5619 5617 5615 5613 5612
5640 5639 5640 5641 5640 5640 5641 5644 5645 5644 5646 5646 5645 5647 5648 5648 5650 5650 5647 5646 5645 5645 5645 5645 5647 5647 5646 5646 5645 5645 5645 5643 5641 5643 5645 5646 5645 5647 5647 5647 5647 5647 5645 5644 5644 5642 5640 5639 5638 5637 5634 5633 5635 5636 5636 5635 5634 5632 5633 5634 5634 5634 5635 5632 5629 5627 5620 5619 5622 5620 5616 5621 5623 5620 5621 5624 5624 5621 5620 5619 5617 5614 5612 5610 5608 5605 5603 5601
5632 5631 5632 5632 5631 5632 5633 5636 5637 5637 5638 5638 5637 5639 5640 5640 5641 5641 5639 5638 5637 5637 5637 5636 5637 5638 5637 5637 5637 5637 5637 5637 5634 5633 5637 5639 5636 5637 5639 5639 5639 5639 5638 5637 5636 5634 5631 5629 5630 5630 5627 5626 5626 5626 5626 5625 5624 5623 5624 5625 5626 5626 5626 5624 5619 5616 5613 5611 5609 5610 5611 5612 5613 5614 5613 5614 5613 5610 5608 5608 5606 5605 5603 5601 5600 5597 5595 5593
5623 5623 5624 5624 5622 5624 5626 5627 5628 5629 5630 5629 5628 5631 5634 5633 5632 5632 5631 5630 5629 5630 5630 5628 5628 5629 5628 5628 5628 5627 5629 5630 5627 5626 5629 5629 5628 5627 5628 5630 5630 5629 5629 5628 5626 5625 5621 5618 5621 5622 5618 5618 5618 5617 5617 5616 5613 5613 5613 5616 5619 5619 5618 5615 5610 5608 5608 5602 5596 5603 5606 5600 5601 5608 5606 5602 5600 5598 5596 5595 5594 5593 5592 5590 5589 5587 5585 5584
5615 5615 5616 5615 5614 5616 5617 5618 5620 5620 5620 5620 5620 5623 5626 5625 5624 5623 5623 5622 5621 5622 5622 5620 5620 5621 5620 5620 5619 5618 5621 5621 5619 5619 5620 5620 5620 5618 5618 5620 5620 5619 5619 5618 5616 5615 5611 5608 5612 5613 5608 5609 5611 5609 5608 5606 5602 5601 5602 5605 5609 5610 5610 5606 5600 5600 5601 5592 5586 5593 5597 5590 5590 5596 5594 5589 5588 5586 5584 5583 5582 5582 5580 5577 5575 5574 5574 5573
5607 5608 5607 5607 5607 5609 5609 5610 5611 5610 5610 5610 5611 5615 5618 5616 5616 5614 5613 5614 5614 5614 5614 5612 5612 5613 5613 5612 5611 5610 5612 5612 5611 5612 5612 5611 5611 5610 5609 5609 5609 5610 5611 5609 5607 5605 5601 5601 5603 5601 5598 5600 5602 5601 5600 5595 5590 5591 5592 5593 5596 5598 5599 5595 5591 5591 5590 5582 5578 5581 5580 5577 5580 5582 5579 5577 5576 5574 5572 5571 5570 5569 5567 5566 5564 5562 5561 5561
5599 5599 5599 5599 5600 5601 5601 5602 5603 5602 5602 5601 5602 5607 5608 5607 5608 5606 5603 5604 5605 5605 5605 5604 5603 5604 5604 5603 5602 5602 5603 5603 5602 5603 5603 5602 5601 5601 5600 5599 5600 5601 5601 5600 5599 5595 5593 5593 5593 5590 5586 5587 5592 5594 5590 5584 5581 5580 5580 5583 5586 5587 5585 5584 5583 5583 5578 5571 5571 5570 5564 5563 5569 5569 5565 5563 5562 5561 5560 5559 5558 5556 5554 5553 5552 5551 5550 5549
5591 5591 5591 5591 5591 5592 5593 5594 5594 5594 5594 5594 5595 5597 5598 5598 5599 5598 5595 5595 5596 5596 5596 5595 5594 5595 5595 5595 5594 5593 5593 5593 5592 5593 5593 5593 5592 5592 5591 5590 5591 5592 5592 5592 5589 5586 5585 5583 5583 5581 5574 5574 5584 5583 5576 5575 5572 5567 5569 5576 5579 5576 5572 5571 5572 5570 5567 5563 5561 5559 5553 5552 5556 5555 5551 5548 5548 5548 5548 5547 5547 5545 5542 5540 5540 5540 5540 5538
5582 5583 5584 5583 5583 5585 5586 5586 5586 5586 5587 5588 5587 5588 5589 5589 5590 5589 5587 5586 5587 5588 5588 5587 5586 5586 5586 5587 5587 5585 5585 5584 5583 5583 5583 5584 5583 5582 5582 5582 5583 5583 5584 5583 5580 5578 5578 5573 5573 5572 5562 5563 5574 5571 5564 5563 5556 5554 5565 5573 5569 5565 5561 5558 5557 5557 5558 5555 5549 5546 5544 5543 5542 5540 5537 5535 5534 5535 5536 5537 5537 5535 5531 5529 5529 5529 5529 5527